Weather History for KSHR - October, 2013

Change the Weather History Date:

Tuesday, October 29, 2013

  Actual Average Record
Temperature  
Mean Temperature 31 °F 41 °F  
Max Temperature 34 °F 55 °F 83 °F (1968)
Min Temperature 28 °F 27 °F -12 °F (1917)
Degree Days  
Heating Degree Days 34 24  
Month to date heating degree days 654 555  
Since 1 July heating degree days 809 858  
Cooling Degree Days 0 0  
Month to date cooling degree days 0 0  
Year to date cooling degree days 592 418  
Moisture  
Dew Point 26 °F    
Average Humidity 79    
Maximum Humidity 85    
Minimum Humidity 72    
Precipitation  
Precipitation 0.00 in 0.03 in 0.71 in (1922)
Month to date precipitation 2.46 1.35  
Year to date precipitation 16.71 12.83  
Sea Level Pressure  
Sea Level Pressure 30.04 in    
Wind  
Wind Speed 4 mph (SE)    
Max Wind Speed 16 mph    
Max Gust Speed 21 mph    
Visibility 10 miles    
Events      
T = Trace of Precipitation, MM = Missing Value Source: NWS Daily Summary

Daily Weather History Graph

Daily Weather History Graph

Search for Another Location

Airport or City:

Trip Planner

Search our weather history database for the weather conditions in past years. The results will help you decide how hot, cold, wet, or windy it might be!

Date:

Astronomy

Oct. 29, 2013 Rise Set
Actual Time 7:42 AM MDT 6:00 PM MDT
Civil Twilight 7:11 AM MDT 6:30 PM MDT
Nautical Twilight 6:37 AM MDT 7:04 PM MDT
Astronomical Twilight 6:03 AM MDT 7:38 PM MDT
Moon 2:22 AM MDT (10/29) 3:26 PM MDT (10/29)
Length of Visible Light 11h 18m
Length of Day
10h 18m
Waning Crescent, 24% of the Moon is Illuminated
Oct 29
Waning Crescent
Nov 3
New
Nov 9
First Quarter
Nov 17
Full
Nov 25
Last Quarter

Hourly Weather History & Observations

Time (MDT) Temp. Windchill Dew Point Humidity Pressure Visibility Wind Dir Wind Speed Gust Speed Precip Events Conditions
12:53 AM 30.0 °F 18.3 °F 23.0 °F 75% 30.14 in 10.0 mi SE 17.3 mph 21.9 mph N/A   Overcast
1:53 AM 28.9 °F 18.2 °F 23.0 °F 78% 30.13 in 10.0 mi SE 13.8 mph - N/A   Overcast
2:53 AM 28.9 °F 21.1 °F 23.0 °F 78% 30.14 in 10.0 mi SE 8.1 mph - N/A   Overcast
3:53 AM 28.9 °F 19.2 °F 23.0 °F 78% 30.12 in 10.0 mi SE 11.5 mph - N/A   Overcast
4:04 AM 28.9 °F 19.2 °F 24.1 °F 82% 30.02 in 10.0 mi SSE 11.5 mph - N/A   Overcast
4:53 AM 28.9 °F 19.8 °F 24.1 °F 82% 30.10 in 10.0 mi SSE 10.4 mph - N/A   Overcast
5:30 AM 28.9 °F 19.8 °F 24.1 °F 82% 29.99 in 10.0 mi SSE 10.4 mph - N/A   Overcast
5:53 AM 28.9 °F 21.1 °F 25.0 °F 85% 30.09 in 10.0 mi SSE 8.1 mph - N/A   Overcast
6:53 AM 28.9 °F 20.4 °F 24.1 °F 82% 30.10 in 10.0 mi SSE 9.2 mph - N/A   Overcast
7:53 AM 28.9 °F 23.9 °F 24.1 °F 82% 30.10 in 10.0 mi ESE 4.6 mph - N/A   Overcast
8:53 AM 30.0 °F 25.2 °F 26.1 °F 85% 30.09 in 10.0 mi WNW 4.6 mph - N/A   Overcast
9:07 AM 30.0 °F 25.2 °F 26.1 °F 85% 29.99 in 10.0 mi WNW 4.6 mph - N/A   Overcast
9:19 AM 30.0 °F 26.5 °F 26.1 °F 85% 29.99 in 10.0 mi West 3.5 mph - N/A   Overcast
9:53 AM 30.0 °F - 26.1 °F 85% 30.10 in 10.0 mi Calm Calm - N/A   Overcast
10:53 AM 30.9 °F 26.2 °F 26.1 °F 82% 30.08 in 10.0 mi SW 4.6 mph - N/A   Overcast
11:53 AM 30.9 °F - 27.0 °F 85% 30.09 in 10.0 mi Calm Calm - N/A   Overcast
12:53 PM 32.0 °F - 27.0 °F 82% 30.06 in 10.0 mi Calm Calm - N/A   Overcast
1:44 PM 33.1 °F - 27.0 °F 78% 29.95 in 10.0 mi Calm Calm - N/A   Overcast
1:53 PM 33.1 °F - 26.1 °F 75% 30.05 in 10.0 mi Calm Calm - N/A   Overcast
2:53 PM 33.1 °F 30.0 °F 27.0 °F 78% 30.04 in 10.0 mi ESE 3.5 mph - N/A   Overcast
3:53 PM 34.0 °F 31.0 °F 27.0 °F 75% 30.01 in 10.0 mi Variable 3.5 mph - N/A   Overcast
4:53 PM 33.1 °F 28.7 °F 26.1 °F 75% 30.01 in 10.0 mi North 4.6 mph - N/A   Overcast
5:53 PM 33.1 °F 27.7 °F 26.1 °F 75% 30.00 in 10.0 mi North 5.8 mph - N/A   Overcast
6:53 PM 32.0 °F 27.5 °F 27.0 °F 82% 30.03 in 10.0 mi NE 4.6 mph - N/A   Overcast
7:53 PM 32.0 °F - 27.0 °F 82% 30.03 in 10.0 mi Calm Calm - N/A   Overcast
8:53 PM 32.0 °F 28.7 °F 27.0 °F 82% 30.01 in 10.0 mi SE 3.5 mph - N/A   Overcast
9:53 PM 32.0 °F - 28.0 °F 85% 29.99 in 10.0 mi Calm Calm - N/A   Overcast
10:37 PM 32.0 °F 28.7 °F 28.0 °F 85% 29.90 in 10.0 mi ESE 3.5 mph - N/A   Overcast
10:53 PM 32.0 °F 27.5 °F 28.0 °F 85% 29.98 in 10.0 mi SE 4.6 mph - N/A   Overcast
11:27 PM 32.0 °F 27.5 °F 28.0 °F 85% 29.88 in 10.0 mi SE 4.6 mph - N/A   Overcast
11:53 PM 32.0 °F - 28.9 °F 88% 29.96 in 10.0 mi Calm Calm - N/A   Overcast